TimeCDT,TemperatureF,Dew PointF,Humidity,Sea Level PressureIn,VisibilityMPH,Wind Direction,Wind SpeedMPH,Gust SpeedMPH,PrecipitationIn,Events,Conditions,WindDirDegrees,DateUTC
1:35 AM,68.0,64.4,88,29.94,7.0,South,12.7,-,N/A,,Clear,170,2012-10-13 06:35:00
1:55 AM,68.0,64.4,88,29.95,7.0,South,11.5,-,N/A,,Clear,170,2012-10-13 06:55:00
2:15 AM,68.0,64.4,88,29.95,7.0,South,10.4,-,N/A,,Clear,180,2012-10-13 07:15:00
2:35 AM,68.0,64.4,88,29.94,7.0,South,13.8,-,N/A,,Clear,170,2012-10-13 07:35:00
2:55 AM,69.8,66.2,88,29.93,10.0,South,19.6,-,N/A,,Clear,180,2012-10-13 07:55:00
3:15 AM,69.8,66.2,88,29.94,10.0,South,18.4,-,N/A,,Clear,180,2012-10-13 08:15:00
3:35 AM,71.6,66.2,83,29.92,10.0,South,19.6,28.8,N/A,,Clear,180,2012-10-13 08:35:00
3:55 AM,71.6,66.2,83,29.92,10.0,South,20.7,25.3,N/A,,Clear,180,2012-10-13 08:55:00
4:15 AM,71.6,66.2,83,29.91,10.0,South,19.6,-,N/A,,Clear,170,2012-10-13 09:15:00
4:35 AM,71.6,66.2,83,29.90,10.0,South,19.6,-,N/A,,Clear,180,2012-10-13 09:35:00
5:35 AM,69.8,64.4,83,29.89,10.0,South,17.3,21.9,N/A,,Clear,170,2012-10-13 10:35:00
5:55 AM,69.8,64.4,83,29.89,10.0,South,18.4,24.2,N/A,,Clear,170,2012-10-13 10:55:00
6:20 AM,71.6,66.2,83,29.89,10.0,South,17.3,25.3,N/A,,Overcast,180,2012-10-13 11:20:00
6:50 AM,71.6,66.2,83,29.89,10.0,South,20.7,28.8,N/A,,Mostly Cloudy,180,2012-10-13 11:50:00
7:50 AM,69.8,66.2,88,29.91,10.0,South,15.0,-,N/A,,Mostly Cloudy,190,2012-10-13 12:50:00
8:50 AM,69.8,66.2,88,29.89,7.0,South,13.8,19.6,N/A,,Overcast,180,2012-10-13 13:50:00
10:50 AM,73.4,68.0,83,29.85,7.0,South,20.7,31.1,N/A,,Overcast,180,2012-10-13 15:50:00
11:50 AM,75.2,69.8,83,29.82,7.0,South,24.2,31.1,N/A,Rain,Light Rain,180,2012-10-13 16:50:00
12:54 PM,77.0,69.8,78,29.78,7.0,South,20.7,29.9,N/A,,Mostly Cloudy,190,2012-10-13 17:54:00
1:50 PM,77.0,69.8,78,29.76,10.0,South,24.2,34.5,N/A,,Overcast,170,2012-10-13 18:50:00
4:50 PM,71.6,60.8,69,29.67,10.0,South,24.2,32.2,N/A,,Scattered Clouds,180,2012-10-13 21:50:00
7:50 PM,71.6,66.2,83,29.69,10.0,South,13.8,-,N/A,,Scattered Clouds,190,2012-10-14 00:50:00
9:15 PM,68.0,64.4,88,29.69,10.0,SW,6.9,-,N/A,,Clear,220,2012-10-14 02:15:00
9:35 PM,64.4,62.6,94,29.69,10.0,SW,8.1,-,N/A,,Clear,230,2012-10-14 02:35:00
9:55 PM,64.4,55.4,73,29.70,10.0,WSW,9.2,-,N/A,,Clear,250,2012-10-14 02:55:00
10:15 PM,68.0,44.6,43,29.71,10.0,West,12.7,19.6,N/A,,Clear,260,2012-10-14 03:15:00
11:15 PM,60.8,44.6,55,29.72,10.0,West,6.9,-,N/A,,Clear,270,2012-10-14 04:15:00
11:35 PM,60.8,44.6,55,29.73,10.0,West,9.2,-,N/A,,Clear,270,2012-10-14 04:35:00